FW7504 Weather Reports


time (UTC)temp
C
wind
direction
speed
KPH
gust
KPH
rain 1hr
cm
rain 24hr
cm
rain mn
cm
humidity
%
barometer
mb
20260510231554 26 0 0.0 1.6 0.00 0.00 0.00 49 1016.5
20260510231055 26 0 0.0 1.6 0.00 0.00 0.00 43 1016.6
20260510230557 26 0 0.0 1.6 0.00 0.00 0.00 41 1016.5
20260510230054 26 0 0.0 4.8 0.00 0.00 0.00 40 1016.6
20260510225553 27 0 0.0 9.7 0.00 0.00 0.00 39 1016.6
20260510225054 27 71 3.2 9.7 0.00 0.00 0.00 38 1016.5
20260510224600 27 101 0.0 4.8 0.00 0.00 0.00 40 1016.6
20260510224052 27 67 0.0 6.4 0.00 0.00 0.00 39 1016.6
20260510223552 27 0 1.6 9.7 0.00 0.00 0.00 38 1016.6
20260510223103 27 0 1.6 9.7 0.00 0.00 0.00 38 1016.5
20260510222552 27 85 0.0 6.4 0.00 0.00 0.00 39 1016.5
20260510222051 27 46 1.6 6.4 0.00 0.00 0.00 38 1016.7
20260510221553 27 98 0.0 4.8 0.00 0.00 0.00 40 1016.8
20260510221049 27 24 0.0 9.7 0.00 0.00 0.00 38 1016.6
20260510220554 27 111 0.0 9.7 0.00 0.00 0.00 40 1016.6
20260510220054 27 83 0.0 4.8 0.00 0.00 0.00 40 1016.7
20260510215549 27 87 0.0 8.0 0.00 0.00 0.00 40 1016.7
20260510215051 27 0 1.6 8.0 0.00 0.00 0.00 39 1016.6
20260510214553 28 0 0.0 6.4 0.00 0.00 0.00 40 1016.6
20260510214048 28 0 0.0 6.4 0.00 0.00 0.00 38 1016.5
20260510213549 28 0 0.0 8.0 0.00 0.00 0.00 38 1016.7
20260510213053 28 344 0.0 11.3 0.00 0.00 0.00 37 1016.7
20260510212548 28 28 3.2 11.3 0.00 0.00 0.00 37 1016.7
20260510212051 28 352 1.6 6.4 0.00 0.00 0.00 37 1016.8
20260510211600 28 59 3.2 6.4 0.00 0.00 0.00 37 1016.8
20260510211047 27 0 0.0 8.0 0.00 0.00 0.00 38 1016.8
20260510210551 27 0 1.6 8.0 0.00 0.00 0.00 38 1016.7
20260510210054 27 101 1.6 8.0 0.00 0.00 0.00 40 1016.8
20260510205549 27 96 0.0 8.0 0.00 0.00 0.00 38 1016.8
20260510205049 27 103 0.0 3.2 0.00 0.00 0.00 38 1016.7
20260510204558 27 217 0.0 3.2 0.00 0.00 0.00 42 1016.8
20260510204049 27 0 0.0 4.8 0.00 0.00 0.00 38 1016.8
20260510203548 27 360 0.0 12.9 0.00 0.00 0.00 36 1016.9
20260510203053 27 119 4.8 12.9 0.00 0.00 0.00 35 1017.1
20260510202552 27 0 0.0 12.9 0.00 0.00 0.00 39 1017.0
20260510202049 27 130 1.6 12.9 0.00 0.00 0.00 37 1017.1
20260510201552 27 96 1.6 12.9 0.00 0.00 0.00 37 1017.2
20260510201048 27 0 4.8 12.9 0.00 0.00 0.00 37 1017.3
20260510200554 27 132 1.6 16.1 0.00 0.00 0.00 37 1017.4
20260510200108 27 17 1.6 16.1 0.00 0.00 0.00 37 1017.3
20260510195552 27 40 4.8 16.1 0.00 0.00 0.00 38 1017.6
20260510195052 27 0 1.6 8.0 0.00 0.00 0.00 37 1017.4
20260510194605 27 74 0.0 9.7 0.00 0.00 0.00 37 1017.6
20260510194057 27 0 1.6 9.7 0.00 0.00 0.00 37 1017.7
20260510193553 27 106 1.6 17.7 0.00 0.00 0.00 38 1017.6
20260510193103 27 81 4.8 17.7 0.00 0.00 0.00 38 1017.5
20260510192548 27 360 6.4 14.5 0.00 0.00 0.00 38 1017.7
20260510192048 27 65 4.8 14.5 0.00 0.00 0.00 38 1017.7
20260510191552 27 78 1.6 11.3 0.00 0.00 0.00 38 1017.7
20260510191053 27 0 1.6 11.3 0.00 0.00 0.00 39 1017.8
20260510190551 27 299 3.2 8.0 0.00 0.00 0.00 40 1017.8
20260510190055 27 88 1.6 6.4 0.00 0.00 0.00 40 1017.8
20260510185548 27 0 0.0 12.9 0.00 0.00 0.00 40 1017.8
20260510185049 27 101 1.6 14.5 0.00 0.00 0.00 40 1018.0
20260510184601 27 12 3.2 14.5 0.00 0.00 0.00 42 1017.9
20260510184051 27 100 3.2 12.9 0.00 0.00 0.00 41 1018.0
20260510183551 27 0 0.0 3.2 0.00 0.00 0.00 42 1017.9
20260510183053 27 239 0.0 4.8 0.00 0.00 0.00 42 1018.0
20260510182548 27 0 0.0 6.4 0.00 0.00 0.00 43 1017.9
20260510182048 27 349 1.6 9.7 0.00 0.00 0.00 43 1017.9
20260510181552 27 360 1.6 9.7 0.00 0.00 0.00 41 1018.0
20260510181052 27 12 3.2 9.7 0.00 0.00 0.00 41 1017.9
20260510180549 27 0 0.0 8.0 0.00 0.00 0.00 42 1018.0
20260510180056 27 0 0.0 3.2 0.00 0.00 0.00 46 1018.1
20260510175548 27 0 0.0 4.8 0.00 0.00 0.00 45 1018.2
20260510175049 27 0 0.0 4.8 0.00 0.00 0.00 48 1018.3
20260510174558 27 0 0.0 4.8 0.00 0.00 0.00 48 1018.3
20260510174054 27 306 0.0 4.8 0.00 0.00 0.00 49 1018.4
20260510173552 27 193 0.0 6.4 0.00 0.00 0.00 51 1018.4
20260510173055 27 0 0.0 6.4 0.00 0.00 0.00 47 1018.4
20260510172551 27 279 1.6 6.4 0.00 0.00 0.00 47 1018.4
20260510172051 26 17 0.0 4.8 0.00 0.00 0.00 49 1018.5
20260510171552 26 352 0.0 3.2 0.00 0.00 0.00 47 1018.5
20260510171053 26 0 0.0 3.2 0.00 0.00 0.00 48 1018.7
20260510170549 26 0 0.0 3.2 0.00 0.00 0.00 48 1018.6
20260510170056 26 0 0.0 4.8 0.00 0.00 0.00 48 1018.7
20260510165556 26 259 0.0 8.0 0.00 0.00 0.00 48 1018.6
20260510165051 26 5 1.6 12.9 0.00 0.00 0.00 48 1018.6
20260510164608 26 128 3.2 12.9 0.00 0.00 0.00 50 1018.6
20260510164051 26 89 1.6 4.8 0.00 0.00 0.00 51 1018.6
20260510163554 26 0 0.0 4.8 0.00 0.00 0.00 53 1018.7
20260510163055 26 0 0.0 4.8 0.00 0.00 0.00 60 1018.7
20260510162548 26 5 0.0 4.8 0.00 0.00 0.00 60 1018.7
20260510162053 25 0 0.0 3.2 0.00 0.00 0.00 62 1018.8
20260510161557 25 157 0.0 3.2 0.00 0.00 0.00 63 1018.7
20260510161053 25 0 0.0 1.6 0.00 0.00 0.00 65 1018.6
20260510160557 25 0 0.0 3.2 0.00 0.00 0.00 62 1018.7
20260510160056 25 269 0.0 3.2 0.00 0.00 0.00 64 1018.5
20260510155553 25 269 0.0 4.8 0.00 0.00 0.00 63 1018.5
20260510155054 25 0 1.6 4.8 0.00 0.00 0.00 62 1018.5
20260510154602 25 0 0.0 3.2 0.00 0.00 0.00 61 1018.5
20260510154054 25 0 0.0 1.6 0.00 0.00 0.00 62 1018.6
20260510153554 25 0 0.0 3.2 0.00 0.00 0.00 65 1018.6
20260510153054 25 0 0.0 3.2 0.00 0.00 0.00 65 1018.6
20260510152553 25 5 0.0 3.2 0.00 0.00 0.00 67 1018.7
20260510152054 24 0 0.0 3.2 0.00 0.00 0.00 67 1018.7
20260510151556 24 0 0.0 3.2 0.00 0.00 0.00 68 1018.6
20260510151053 23 0 0.0 3.2 0.00 0.00 0.00 69 1018.7
20260510150553 23 0 0.0 6.4 0.00 0.00 0.00 71 1018.6
20260510150121 23 257 1.6 6.4 0.00 0.00 0.00 71 1018.6
20260510145558 23 0 0.0 3.2 0.00 0.00 0.00 73 1018.6
20260510145053 23 0 0.0 3.2 0.00 0.00 0.00 73 1018.5
20260510144621 23 265 0.0 4.8 0.00 0.00 0.00 74 1018.4
20260510144056 22 0 0.0 4.8 0.00 0.00 0.00 75 1018.5
20260510143554 22 9 0.0 4.8 0.00 0.00 0.00 77 1018.4
20260510143056 21 315 0.0 3.2 0.00 0.00 0.00 78 1018.4
20260510142553 21 0 0.0 1.6 0.00 0.00 0.00 78 1018.5
20260510142054 21 0 0.0 1.6 0.00 0.00 0.00 78 1018.5
20260510141553 21 0 0.0 1.6 0.00 0.00 0.00 80 1018.4
20260510141054 20 0 0.0 1.6 0.00 0.00 0.00 81 1018.5
20260510140553 20 0 0.0 3.2 0.00 0.00 0.00 81 1018.5
20260510140056 20 0 0.0 3.2 0.00 0.00 0.00 83 1018.5
20260510135553 20 0 0.0 3.2 0.00 0.00 0.00 83 1018.5
20260510135053 19 352 0.0 3.2 0.00 0.00 0.00 84 1018.5
20260510134606 19 0 0.0 3.2 0.00 0.00 0.00 85 1018.5
20260510134053 18 0 0.0 1.6 0.00 0.00 0.00 85 1018.4
20260510133553 18 0 0.0 3.2 0.00 0.00 0.00 86 1018.4
20260510133053 18 0 0.0 3.2 0.00 0.00 0.00 87 1018.4
20260510132554 18 32 0.0 1.6 0.00 0.00 0.00 88 1018.4
20260510132151 17 41 0.0 1.6 0.00 0.00 0.00 90 1018.3
20260510131552 17 0 0.0 0.0 0.00 0.00 0.00 91 1018.3
20260510131053 17 0 0.0 0.0 0.00 0.00 0.00 91 1018.3
20260510130553 16 0 0.0 0.0 0.00 0.00 0.00 92 1018.4
20260510130056 16 0 0.0 0.0 0.00 0.00 0.00 93 1018.3
20260510125555 16 0 0.0 0.0 0.00 0.00 0.00 93 1018.4
20260510125053 15 0 0.0 0.0 0.00 0.00 0.00 94 1018.2
20260510124601 15 0 0.0 0.0 0.00 0.00 0.00 94 1018.3
20260510124053 15 0 0.0 0.0 0.00 0.00 0.00 94 1018.2
20260510123553 15 0 0.0 0.0 0.00 0.00 0.00 94 1018.2
20260510123056 14 0 0.0 0.0 0.00 0.00 0.00 94 1018.2
20260510122552 14 0 0.0 0.0 0.00 0.00 0.00 94 1018.0
20260510122053 13 0 0.0 0.0 0.00 0.00 0.00 94 1018.0
20260510121553 13 0 0.0 0.0 0.00 0.00 0.00 94 1017.9
20260510121053 13 0 0.0 0.0 0.00 0.00 0.00 93 1018.0
20260510120552 13 0 0.0 0.0 0.00 0.00 0.00 93 1017.9
20260510120051 12 0 0.0 0.0 0.00 0.00 0.00 93 1018.1
20260510115552 12 0 0.0 0.0 0.00 0.00 0.00 93 1018.0
20260510115053 12 0 0.0 0.0 0.00 0.00 0.00 93 1017.9
20260510114608 12 0 0.0 0.0 0.00 0.00 0.00 92 1017.9
20260510114052 12 0 0.0 0.0 0.00 0.00 0.00 92 1017.8
20260510113553 12 0 0.0 0.0 0.00 0.00 0.00 92 1017.9
20260510113057 12 0 0.0 0.0 0.00 0.00 0.00 92 1017.6
20260510112553 12 0 0.0 0.0 0.00 0.00 0.00 92 1017.6
20260510112053 12 0 0.0 0.0 0.00 0.00 0.00 92 1017.5
20260510111553 12 0 0.0 0.0 0.00 0.00 0.00 92 1017.4
20260510111053 12 0 0.0 0.0 0.00 0.00 0.00 92 1017.3
20260510110556 12 0 0.0 0.0 0.00 0.00 0.00 91 1017.1
20260510110052 12 0 0.0 0.0 0.00 0.00 0.00 91 1017.1
20260510105553 12 0 0.0 0.0 0.00 0.00 0.00 91 1016.9
20260510105053 12 0 0.0 0.0 0.00 0.00 0.00 91 1016.8
20260510104557 12 0 0.0 0.0 0.00 0.00 0.00 91 1016.8
20260510104053 12 0 0.0 0.0 0.00 0.00 0.00 91 1016.7
20260510103552 12 0 0.0 0.0 0.00 0.00 0.00 91 1016.5
20260510103052 12 0 0.0 0.0 0.00 0.00 0.00 91 1016.5
20260510102553 12 0 0.0 0.0 0.00 0.00 0.00 91 1016.5
20260510102053 12 0 0.0 0.0 0.00 0.00 0.00 91 1016.5
20260510101553 12 0 0.0 0.0 0.00 0.00 0.00 90 1016.5
20260510101054 12 0 0.0 0.0 0.00 0.00 0.00 90 1016.6
20260510100554 12 0 0.0 0.0 0.00 0.00 0.00 91 1016.6
20260510095553 12 0 0.0 0.0 0.00 0.00 0.00 90 1016.4
20260510095053 12 0 0.0 0.0 0.00 0.00 0.00 91 1016.3
20260510094604 12 0 0.0 0.0 0.00 0.00 0.00 91 1016.3
20260510094053 12 0 0.0 0.0 0.00 0.00 0.00 90 1016.3
20260510093553 12 0 0.0 0.0 0.00 0.00 0.00 90 1016.2
20260510093057 12 0 0.0 0.0 0.00 0.00 0.00 90 1016.2
20260510092553 12 0 0.0 0.0 0.00 0.00 0.00 90 1016.2
20260510092054 12 0 0.0 0.0 0.00 0.00 0.00 90 1016.2
20260510091554 12 0 0.0 0.0 0.00 0.00 0.00 90 1016.2
20260510091052 12 0 0.0 0.0 0.00 0.00 0.00 90 1016.2
20260510090553 12 0 0.0 0.0 0.00 0.00 0.00 90 1016.1
20260510090053 12 0 0.0 0.0 0.00 0.00 0.00 90 1016.1
20260510085555 13 0 0.0 0.0 0.00 0.00 0.00 90 1016.1
20260510085052 13 0 0.0 0.0 0.00 0.00 0.00 90 1015.9
20260510084552 13 0 0.0 0.0 0.00 0.00 0.00 90 1015.9
20260510084053 13 0 0.0 0.0 0.00 0.00 0.00 90 1015.8
20260510083553 13 0 0.0 0.0 0.00 0.00 0.00 90 1015.8
20260510083053 13 0 0.0 0.0 0.00 0.00 0.00 90 1015.7
20260510082554 13 0 0.0 0.0 0.00 0.00 0.00 90 1015.6
20260510082053 13 0 0.0 0.0 0.00 0.00 0.00 90 1015.5
20260510081555 13 0 0.0 0.0 0.00 0.00 0.00 90 1015.4
20260510081053 13 0 0.0 0.0 0.00 0.00 0.00 90 1015.5
20260510080555 13 0 0.0 0.0 0.00 0.00 0.00 90 1015.5
20260510080055 13 0 0.0 0.0 0.00 0.00 0.00 90 1015.2
20260510075553 13 0 0.0 0.0 0.00 0.00 0.00 90 1015.3
20260510075052 13 0 0.0 0.0 0.00 0.00 0.00 90 1015.4
20260510074602 13 0 0.0 0.0 0.00 0.00 0.00 90 1015.2
20260510074053 13 0 0.0 0.0 0.00 0.00 0.00 90 1015.2
20260510073552 13 0 0.0 0.0 0.00 0.00 0.00 90 1015.2
20260510073055 13 0 0.0 0.0 0.00 0.00 0.00 89 1015.2
20260510072553 13 0 0.0 0.0 0.00 0.00 0.00 89 1015.2
20260510072053 13 0 0.0 0.0 0.00 0.00 0.00 89 1015.2
20260510071557 13 0 0.0 0.0 0.00 0.00 0.00 89 1015.2
20260510071054 14 0 0.0 0.0 0.00 0.00 0.00 89 1015.2
20260510070553 14 0 0.0 0.0 0.00 0.00 0.00 89 1015.1
20260510070109 14 0 0.0 0.0 0.00 0.00 0.00 89 1015.1
20260510065553 14 0 0.0 0.0 0.00 0.00 0.00 89 1015.1
20260510065052 14 0 0.0 0.0 0.00 0.00 0.00 89 1015.1
20260510064559 14 0 0.0 0.0 0.00 0.00 0.00 89 1015.1
20260510064052 14 0 0.0 0.0 0.00 0.00 0.00 89 1015.0
20260510063552 14 0 0.0 0.0 0.00 0.00 0.00 89 1015.0
20260510063056 14 0 0.0 0.0 0.00 0.00 0.00 89 1014.9
20260510062553 15 0 0.0 0.0 0.00 0.00 0.00 89 1015.1
20260510062052 15 0 0.0 0.0 0.00 0.00 0.00 88 1015.1
20260510061551 15 0 0.0 0.0 0.00 0.00 0.00 88 1015.1
20260510061053 15 0 0.0 0.0 0.00 0.00 0.00 89 1015.1
20260510060553 15 0 0.0 0.0 0.00 0.00 0.00 88 1015.2
20260510060051 15 0 0.0 0.0 0.00 0.00 0.00 88 1015.2
20260510055552 15 0 0.0 0.0 0.00 0.00 0.00 88 1015.3
20260510055053 15 0 0.0 0.0 0.00 0.00 0.00 88 1015.3
20260510054600 15 0 0.0 0.0 0.00 0.00 0.00 88 1015.2
20260510054053 15 0 0.0 0.0 0.00 0.00 0.00 87 1015.2
20260510053552 15 0 0.0 0.0 0.00 0.00 0.00 88 1015.2
20260510053053 15 0 0.0 0.0 0.00 0.00 0.00 88 1015.2
20260510052553 15 0 0.0 0.0 0.00 0.00 0.00 86 1015.3
20260510052052 15 0 0.0 0.0 0.00 0.00 0.00 87 1015.3
20260510051553 15 0 0.0 0.0 0.00 0.00 0.00 86 1015.2
20260510051054 15 0 0.0 0.0 0.00 0.00 0.00 87 1015.4
20260510050553 15 0 0.0 0.0 0.00 0.00 0.00 87 1015.4
20260510050100 15 0 0.0 0.0 0.00 0.00 0.00 86 1015.4
20260510045556 16 0 0.0 0.0 0.00 0.00 0.00 86 1015.4
20260510045051 16 0 0.0 0.0 0.00 0.00 0.00 86 1015.3
20260510044600 16 0 0.0 0.0 0.00 0.00 0.00 86 1015.4
20260510044053 16 0 0.0 0.0 0.00 0.00 0.00 86 1015.5
20260510043553 16 0 0.0 0.0 0.00 0.00 0.00 86 1015.5
20260510043053 16 0 0.0 0.0 0.00 0.00 0.00 86 1015.5
20260510042552 16 0 0.0 0.0 0.00 0.00 0.00 85 1015.5
20260510042053 16 0 0.0 0.0 0.00 0.00 0.00 85 1015.4
20260510041558 16 0 0.0 0.0 0.00 0.00 0.00 85 1015.5
20260510041052 16 0 0.0 0.0 0.00 0.00 0.00 84 1015.5
20260510040554 16 0 0.0 0.0 0.00 0.00 0.00 84 1015.4
20260510040053 16 0 0.0 0.0 0.00 0.00 0.00 84 1015.3
20260510035552 17 0 0.0 0.0 0.00 0.00 0.00 84 1015.3
20260510035056 17 0 0.0 0.0 0.00 0.00 0.00 83 1015.3
20260510034554 17 0 0.0 0.0 0.00 0.00 0.00 83 1015.2
20260510034052 17 0 0.0 0.0 0.00 0.00 0.00 83 1015.3
20260510033554 17 0 0.0 0.0 0.00 0.00 0.00 82 1015.2
20260510033128 17 0 0.0 0.0 0.00 0.00 0.00 82 1015.3
20260510032558 17 0 0.0 0.0 0.00 0.00 0.00 82 1015.4
20260510032054 17 0 0.0 0.0 0.00 0.00 0.00 82 1015.2
20260510031621 17 0 0.0 0.0 0.00 0.00 0.00 81 1015.2
20260510031055 17 0 0.0 0.0 0.00 0.00 0.00 81 1015.0
20260510030553 18 0 0.0 0.0 0.00 0.00 0.00 81 1015.3
20260510030057 18 0 0.0 0.0 0.00 0.00 0.00 81 1015.2
20260510025553 18 0 0.0 0.0 0.00 0.00 0.00 80 1015.1
20260510025053 18 0 0.0 0.0 0.00 0.00 0.00 80 1015.0
20260510024555 18 0 0.0 0.0 0.00 0.00 0.00 80 1014.8
20260510024052 18 0 0.0 0.0 0.00 0.00 0.00 79 1014.8
20260510023554 18 0 0.0 0.0 0.00 0.00 0.00 80 1014.7
20260510023054 18 0 0.0 0.0 0.00 0.00 0.00 80 1014.6
20260510022554 18 0 0.0 0.0 0.00 0.00 0.00 78 1014.5
20260510022053 18 0 0.0 0.0 0.00 0.00 0.00 78 1014.7
20260510021556 18 0 0.0 0.0 0.00 0.00 0.00 78 1014.6
20260510021052 19 0 0.0 0.0 0.00 0.00 0.00 77 1014.5
20260510020555 19 0 0.0 0.0 0.00 0.00 0.00 77 1014.3
20260510020053 19 0 0.0 0.0 0.00 0.00 0.00 77 1014.4
20260510015556 19 0 0.0 0.0 0.00 0.00 0.00 78 1014.4
20260510015052 19 0 0.0 0.0 0.00 0.00 0.00 77 1014.3
20260510014605 20 0 0.0 0.0 0.00 0.00 0.00 77 1014.2
20260510014052 20 0 0.0 0.0 0.00 0.00 0.00 76 1014.1
20260510013552 20 0 0.0 0.0 0.00 0.00 0.00 76 1014.1
20260510013054 20 0 0.0 0.0 0.00 0.00 0.00 76 1014.0
20260510012553 20 0 0.0 0.0 0.00 0.00 0.00 76 1014.1
20260510012056 20 0 0.0 0.0 0.00 0.00 0.00 75 1013.8
20260510011558 20 0 0.0 0.0 0.00 0.00 0.00 75 1013.8
20260510011051 20 0 0.0 0.0 0.00 0.00 0.00 73 1013.8
20260510010554 20 0 0.0 0.0 0.00 0.00 0.00 73 1013.6
20260510005552 21 0 0.0 1.6 0.00 0.00 0.00 71 1013.4
20260510005056 21 0 0.0 1.6 0.00 0.00 0.00 71 1013.3
20260510004556 21 0 0.0 1.6 0.00 0.00 0.00 71 1013.3
20260510004052 21 0 0.0 0.0 0.00 0.00 0.00 71 1013.2
20260510003550 21 0 0.0 0.0 0.00 0.00 0.00 71 1013.1
20260510003100 21 0 0.0 0.0 0.00 0.00 0.00 72 1013.1
20260510002553 21 0 0.0 0.0 0.00 0.00 0.00 72 1013.0
20260510002051 21 0 0.0 1.6 0.00 0.00 0.00 71 1012.8
20260510001553 21 0 0.0 1.6 0.00 0.00 0.00 71 1012.8
20260510001049 21 0 0.0 3.2 0.00 0.00 0.00 69 1012.7
20260510000553 21 0 0.0 4.8 0.00 0.00 0.00 70 1012.5
20260510000057 21 360 0.0 8.0 0.00 0.00 0.00 70 1012.4
20260509235555 21 0 1.6 8.0 0.00 0.00 0.00 70 1012.5
20260509235052 21 0 3.2 6.4 0.00 0.00 0.00 72 1012.8
20260509234606 21 360 0.0 3.2 0.00 0.00 0.00 76 1012.7
20260509234053 21 360 0.0 3.2 0.00 0.00 0.00 75 1012.5
20260509233554 22 0 0.0 4.8 0.00 0.00 0.00 75 1012.4
20260509233056 22 0 0.0 4.8 0.00 0.00 0.00 75 1012.5
20260509232552 22 360 0.0 6.4 0.00 0.00 0.00 75 1012.3
20260509232052 22 360 3.2 6.4 0.00 0.00 0.00 74 1012.3